• In Portugal
  • List of Countries
  • For 7 days
  • Water Temperature
  • Satellite Maps
  • Weather Map
  • Weather Widgets
  • user-avatar
    Login

    Hourly Weather Zarnowa

    Today, 21 April, Saturday

    Time Temperature Precipitation Wind Pressure Humidity
    00:00 +10°C° 0 mm 2 mps 745 mmHg 67%
    01:00 +10°C° 0 mm 2 mps 745 mmHg 68%
    02:00 +9°C° 0 mm 2 mps 744 mmHg 68%
    03:00 +9°C° 0 mm 2 mps 744 mmHg 68%
    04:00 +9°C° 0 mm 2 mps 743 mmHg 68%
    05:00 +11°C° 0 mm 3 mps 743 mmHg 64%
    06:00 +12°C° 0 mm 3 mps 743 mmHg 60%
    07:00 +14°C° 0 mm 4 mps 743 mmHg 57%
    08:00 +17°C° 0 mm 4 mps 743 mmHg 52%
    09:00 +19°C° 0 mm 5 mps 742 mmHg 48%
    10:00 +22°C° 0 mm 5 mps 742 mmHg 44%
    11:00 +23°C° 0 mm 5 mps 742 mmHg 43%
    12:00 +25°C° 0 mm 5 mps 742 mmHg 43%
    13:00 +26°C° 0 mm 6 mps 741 mmHg 42%
    14:00 +26°C° 0 mm 5 mps 741 mmHg 45%
    15:00 +25°C° 0 mm 5 mps 741 mmHg 48%
    16:00 +25°C° 0 mm 4 mps 740 mmHg 51%
    17:00 +22°C° 0.2 mm 3 mps 740 mmHg 59%
    18:00 +20°C° 0.2 mm 3 mps 740 mmHg 66%
    19:00 +18°C° 0.2 mm 3 mps 740 mmHg 74%
    20:00 +17°C° 0.1 mm 2 mps 741 mmHg 75%
    21:00 +16°C° 0.1 mm 2 mps 741 mmHg 76%
    22:00 +16°C° 0.1 mm 1 mps 741 mmHg 77%
    23:00 +15°C° 0 mm 2 mps 741 mmHg 78%

    Tomorrow, 22 April, Sunday

    Time Temperature Precipitation Wind Pressure Humidity
    00:00 +14°C° 0 mm 2 mps 742 mmHg 80%
    01:00 +14°C° 0 mm 2 mps 742 mmHg 81%
    02:00 +13°C° 0 mm 1 mps 742 mmHg 83%
    03:00 +11°C° 0 mm 1 mps 742 mmHg 84%
    04:00 +10°C° 0 mm 1 mps 742 mmHg 85%
    05:00 +11°C° 0 mm 1 mps 742 mmHg 79%
    06:00 +12°C° 0 mm 1 mps 742 mmHg 73%
    07:00 +13°C° 0 mm 1 mps 742 mmHg 68%
    08:00 +15°C° 0 mm 2 mps 742 mmHg 60%
    09:00 +16°C° 0 mm 2 mps 742 mmHg 52%
    10:00 +17°C° 0 mm 3 mps 742 mmHg 45%
    11:00 +18°C° 0 mm 3 mps 742 mmHg 42%
    12:00 +19°C° 0 mm 3 mps 742 mmHg 40%
    13:00 +20°C° 0 mm 3 mps 741 mmHg 38%
    14:00 +19°C° 0 mm 3 mps 741 mmHg 39%
    15:00 +19°C° 0 mm 3 mps 741 mmHg 40%
    16:00 +19°C° 0 mm 3 mps 740 mmHg 41%
    17:00 +17°C° 0 mm 2 mps 740 mmHg 46%
    18:00 +15°C° 0 mm 1 mps 740 mmHg 52%
    19:00 +13°C° 0 mm 1 mps 740 mmHg 58%
    20:00 +12°C° 0 mm 1 mps 741 mmHg 60%
    21:00 +11°C° 0 mm 0 mps 741 mmHg 62%
    22:00 +10°C° 0 mm 0 mps 741 mmHg 64%
    23:00 +9°C° 0 mm 0 mps 741 mmHg 65%

    Day after tomorrow, 23 April, Monday

    Time Temperature Precipitation Wind Pressure Humidity
    00:00 +9°C° 0 mm 0 mps 741 mmHg 67%
    01:00 +9°C° 0 mm 0 mps 741 mmHg 68%
    02:00 +8°C° 0 mm 0 mps 741 mmHg 69%
    03:00 +8°C° 0 mm 0 mps 740 mmHg 70%
    04:00 +8°C° 0 mm 0 mps 740 mmHg 71%
    05:00 +9°C° 0 mm 0 mps 740 mmHg 66%
    06:00 +12°C° 0 mm 1 mps 740 mmHg 62%
    07:00 +14°C° 0 mm 1 mps 740 mmHg 57%
    08:00 +16°C° 0 mm 1 mps 740 mmHg 53%
    09:00 +19°C° 0 mm 1 mps 740 mmHg 48%
    10:00 +21°C° 0 mm 1 mps 740 mmHg 43%
    11:00 +22°C° 0 mm 1 mps 739 mmHg 42%
    12:00 +23°C° 0 mm 2 mps 739 mmHg 40%
    13:00 +25°C° 0 mm 2 mps 739 mmHg 39%
    14:00 +24°C° 0 mm 2 mps 738 mmHg 42%
    15:00 +24°C° 0 mm 2 mps 738 mmHg 46%
    16:00 +24°C° 0 mm 2 mps 737 mmHg 49%
    17:00 +21°C° 1 mm 3 mps 737 mmHg 59%
    18:00 +20°C° 1 mm 3 mps 737 mmHg 69%
    19:00 +18°C° 1 mm 3 mps 736 mmHg 80%
    20:00 +17°C° 1.1 mm 2 mps 737 mmHg 83%
    21:00 +16°C° 1.1 mm 2 mps 737 mmHg 87%
    22:00 +16°C° 1.1 mm 2 mps 737 mmHg 91%
    23:00 +15°C° 0.3 mm 2 mps 737 mmHg 93%

    24 April, Tuesday

    Time Temperature Precipitation Wind Pressure Humidity
    00:00 +15°C° 0.3 mm 2 mps 736 mmHg 94%
    01:00 +14°C° 0.3 mm 2 mps 736 mmHg 95%
    02:00 +13°C° 0.4 mm 3 mps 737 mmHg 95%
    03:00 +13°C° 0.4 mm 3 mps 737 mmHg 96%
    04:00 +13°C° 0.4 mm 3 mps 737 mmHg 97%
    05:00 +13°C° 0.3 mm 4 mps 738 mmHg 94%
    06:00 +13°C° 0.3 mm 4 mps 738 mmHg 91%
    07:00 +14°C° 0.3 mm 5 mps 739 mmHg 88%
    08:00 +14°C° 0.1 mm 5 mps 739 mmHg 80%
    09:00 +15°C° 0.1 mm 5 mps 740 mmHg 72%
    10:00 +17°C° 0.1 mm 4 mps 740 mmHg 65%
    11:00 +17°C° 0.1 mm 4 mps 740 mmHg 62%
    12:00 +18°C° 0.1 mm 4 mps 740 mmHg 60%
    13:00 +18°C° 0.1 mm 4 mps 740 mmHg 57%
    14:00 +18°C° 0 mm 4 mps 740 mmHg 57%
    15:00 +19°C° 0 mm 4 mps 740 mmHg 56%
    16:00 +19°C° 0 mm 4 mps 740 mmHg 56%
    17:00 +17°C° 0 mm 3 mps 740 mmHg 61%
    18:00 +16°C° 0 mm 2 mps 740 mmHg 67%
    19:00 +15°C° 0 mm 1 mps 740 mmHg 72%
    20:00 +14°C° 0 mm 2 mps 740 mmHg 73%
    21:00 +14°C° 0 mm 2 mps 740 mmHg 74%
    22:00 +12°C° 0 mm 3 mps 740 mmHg 74%
    23:00 +12°C° 0 mm 3 mps 740 mmHg 74%

    25 April, Wednesday

    Time Temperature Precipitation Wind Pressure Humidity
    00:00 +12°C° 0 mm 3 mps 740 mmHg 74%
    01:00 +12°C° 0 mm 3 mps 739 mmHg 73%
    02:00 +11°C° 0 mm 3 mps 739 mmHg 75%
    03:00 +11°C° 0 mm 3 mps 739 mmHg 77%
    04:00 +11°C° 0 mm 3 mps 739 mmHg 78%
    05:00 +12°C° 0 mm 3 mps 740 mmHg 75%
    06:00 +14°C° 0 mm 3 mps 740 mmHg 72%
    07:00 +16°C° 0 mm 3 mps 740 mmHg 69%
    08:00 +18°C° 0 mm 4 mps 740 mmHg 63%
    09:00 +19°C° 0 mm 4 mps 740 mmHg 57%
    10:00 +21°C° 0 mm 4 mps 740 mmHg 51%
    11:00 +22°C° 0 mm 4 mps 739 mmHg 50%
    12:00 +23°C° 0 mm 5 mps 739 mmHg 48%
    13:00 +25°C° 0 mm 5 mps 739 mmHg 47%
    14:00 +25°C° 0 mm 4 mps 738 mmHg 48%
    15:00 +25°C° 0 mm 4 mps 737 mmHg 49%
    16:00 +25°C° 0 mm 4 mps 737 mmHg 50%
    17:00 +22°C° 0 mm 3 mps 737 mmHg 56%
    18:00 +20°C° 0 mm 3 mps 737 mmHg 61%
    19:00 +18°C° 0 mm 2 mps 736 mmHg 67%
    20:00 +18°C° 0.6 mm 2 mps 736 mmHg 73%
    21:00 +17°C° 0.6 mm 3 mps 736 mmHg 79%
    22:00 +17°C° 0.6 mm 3 mps 736 mmHg 85%
    23:00 +16°C° 0.3 mm 3 mps 736 mmHg 86%

    26 April, Thursday

    Time Temperature Precipitation Wind Pressure Humidity
    00:00 +16°C° 0.3 mm 3 mps 736 mmHg 87%
    01:00 +16°C° 0.3 mm 3 mps 736 mmHg 88%
    02:00 +14°C° 0.2 mm 3 mps 736 mmHg 88%
    03:00 +14°C° 0.2 mm 3 mps 736 mmHg 89%
    04:00 +14°C° 0.2 mm 3 mps 736 mmHg 89%
    05:00 +16°C° 0.2 mm 3 mps 736 mmHg 87%
    06:00 +16°C° 0.2 mm 3 mps 737 mmHg 85%
    07:00 +17°C° 0.2 mm 3 mps 737 mmHg 83%
    08:00 +18°C° 0 mm 3 mps 737 mmHg 80%
    09:00 +18°C° 0 mm 3 mps 737 mmHg 77%
    10:00 +19°C° 0 mm 3 mps 737 mmHg 74%
    11:00 +18°C° 1.1 mm 3 mps 737 mmHg 77%
    12:00 +17°C° 1.1 mm 3 mps 737 mmHg 81%
    13:00 +17°C° 1.1 mm 3 mps 737 mmHg 84%
    14:00 +17°C° 0.5 mm 4 mps 737 mmHg 83%
    15:00 +17°C° 0.5 mm 4 mps 737 mmHg 82%
    16:00 +17°C° 0.5 mm 4 mps 737 mmHg 81%
    17:00 +15°C° 0.1 mm 4 mps 737 mmHg 82%
    18:00 +14°C° 0.1 mm 4 mps 737 mmHg 83%
    19:00 +13°C° 0.1 mm 4 mps 738 mmHg 83%
    20:00 +12°C° 0 mm 4 mps 738 mmHg 83%
    21:00 +11°C° 0 mm 3 mps 739 mmHg 82%
    22:00 +10°C° 0 mm 3 mps 740 mmHg 81%
    23:00 +10°C° 0 mm 3 mps 740 mmHg 80%
    Show more